Morrisville, VT

9:18 PM EDT on July 20, 2017 (GMT -0400)
Morrisville Stowe State

Weather History for KMVL - January, 2013

Change the Weather History Date:

Wednesday, January 30, 2013

  Actual Average Record
Temperature  
Mean Temperature 45 °F 16 °F  
Max Temperature 57 °F 27 °F 57 °F (2013)
Min Temperature 33 °F 4 °F -18 °F (2007)
Degree Days  
Heating Degree Days 20 50  
Month to date heating degree days 1440 1478  
Since 1 July heating degree days 4284 4616  
Cooling Degree Days 0 0  
Month to date cooling degree days 0 0  
Year to date cooling degree days 0 0  
Moisture  
Dew Point 39 °F    
Average Humidity 91    
Maximum Humidity 100    
Minimum Humidity 82    
Precipitation  
Precipitation 0.38 in 0.08 in 0.64 in (2001)
Month to date precipitation 1.08 2.47  
Year to date precipitation 1.08 2.47  
Sea Level Pressure  
Sea Level Pressure 29.61 in    
Wind  
Wind Speed 5 mph (South)    
Max Wind Speed 17 mph    
Max Gust Speed 25 mph    
Visibility 7 miles    
Events Fog , Rain    
T = Trace of Precipitation, MM = Missing Value Source: NWS Daily Summary

Daily Weather History Graph

Daily Weather History Graph

Search for Another Location

Airport or City:

Trip Planner

Search our weather history database for the weather conditions in past years. The results will help you decide how hot, cold, wet, or windy it might be!

Date:

Astronomy

Jan. 30, 2013 Rise Set
Actual Time 7:11 AM EST 4:57 PM EST
Civil Twilight 6:39 AM EST 5:28 PM EST
Nautical Twilight 6:04 AM EST 6:03 PM EST
Astronomical Twilight 5:30 AM EST 6:37 PM EST
Moon 9:04 PM EST (1/30) 8:26 AM EST (1/30)
Length of Visible Light 10h 48m
Length of Day
9h 46m
Waning Gibbous, 88% of the Moon is Illuminated
Jan 30
Waning Gibbous
Feb 3
Last Quarter
Feb 10
New
Feb 17
First Quarter
Feb 25
Full

Hourly Weather History & Observations

Time (EST) Temp. Windchill Dew Point Humidity Pressure Visibility Wind Dir Wind Speed Gust Speed Precip Events Conditions
12:54 AM 33.1 °F - 30.0 °F 89% 29.99 in 7.0 mi Calm Calm - 0.01 in Rain Light Rain
1:47 AM 33.8 °F 27.7 °F 30.2 °F 87% 29.94 in 7.0 mi SSW 6.9 mph - 0.11 in Rain Light Rain
1:54 AM 34.0 °F 26.6 °F 30.9 °F 89% 29.97 in 10.0 mi SSW 9.2 mph - 0.11 in Rain Light Rain
2:01 AM 33.8 °F 26.4 °F 30.2 °F 87% 29.94 in 9.0 mi SW 9.2 mph - 0.00 in Rain Light Rain
2:08 AM 33.8 °F 25.8 °F 30.2 °F 87% 29.92 in 7.0 mi SSW 10.4 mph - 0.00 in Rain Light Rain
2:44 AM 33.8 °F 29.6 °F 30.2 °F 87% 29.91 in 7.0 mi South 4.6 mph - 0.03 in Rain Light Rain
2:54 AM 34.0 °F 27.2 °F 32.0 °F 92% 29.93 in 10.0 mi SSW 8.1 mph - 0.03 in Rain Light Rain
3:39 AM 35.6 °F 31.7 °F 30.2 °F 81% 29.87 in 8.0 mi South 4.6 mph - 0.02 in Rain Light Rain
3:54 AM 34.0 °F 28.8 °F 32.0 °F 92% 29.90 in 10.0 mi South 5.8 mph - 0.03 in Rain Light Rain
4:54 AM 34.0 °F - 32.0 °F 92% 29.86 in 7.0 mi Calm Calm - 0.06 in Rain Light Rain
5:02 AM 33.8 °F 30.8 °F 32.0 °F 93% 29.83 in 10.0 mi Variable 3.5 mph - 0.00 in   Overcast
5:54 AM 34.0 °F 31.0 °F 32.0 °F 92% 29.83 in 10.0 mi SSE 3.5 mph - 0.00 in   Overcast
6:54 AM 35.1 °F 32.2 °F 33.1 °F 92% 29.79 in 10.0 mi SSE 3.5 mph - N/A   Overcast
7:54 AM 35.1 °F 32.2 °F 33.1 °F 92% 29.76 in 10.0 mi SSE 3.5 mph - N/A   Overcast
8:54 AM 37.0 °F 32.4 °F 35.1 °F 93% 29.72 in 10.0 mi Variable 5.8 mph - N/A   Overcast
9:31 AM 37.4 °F 32.1 °F 35.6 °F 93% 29.67 in 10.0 mi South 6.9 mph - N/A   Scattered Clouds
9:54 AM 39.0 °F 34.0 °F 36.0 °F 89% 29.68 in 10.0 mi South 6.9 mph - N/A   Scattered Clouds
10:26 AM 39.2 °F 34.2 °F 35.6 °F 87% 29.65 in 10.0 mi SSE 6.9 mph - N/A   Mostly Cloudy
10:38 AM 39.2 °F 35.0 °F 35.6 °F 87% 29.64 in 10.0 mi SE 5.8 mph - N/A   Scattered Clouds
10:54 AM 39.9 °F 35.1 °F 37.0 °F 89% 29.65 in 10.0 mi Variable 6.9 mph - N/A   Scattered Clouds
11:11 AM 41.0 °F 36.4 °F 37.4 °F 87% 29.62 in 10.0 mi SSE 6.9 mph - N/A   Mostly Cloudy
11:54 AM 39.9 °F 35.1 °F 37.0 °F 89% 29.60 in 10.0 mi SSE 6.9 mph - N/A   Overcast
12:19 PM 42.8 °F 39.3 °F 37.4 °F 81% 29.55 in 10.0 mi SSE 5.8 mph - N/A   Overcast
12:54 PM 43.0 °F 40.3 °F 37.9 °F 82% 29.54 in 10.0 mi Variable 4.6 mph - N/A   Overcast
1:54 PM 44.1 °F - 39.9 °F 85% 29.50 in 10.0 mi Calm Calm - N/A   Overcast
2:54 PM 45.0 °F - 41.0 °F 86% 29.48 in 6.0 mi Calm Calm - 0.01 in Rain Light Rain
3:32 PM 42.8 °F - 39.2 °F 87% 29.46 in 1.5 mi Calm Calm - 0.01 in   Overcast
3:40 PM 42.8 °F - 41.0 °F 93% 29.46 in 0.8 mi Calm Calm - 0.01 in   Overcast
3:54 PM 39.9 °F - 39.0 °F 97% 29.46 in 0.5 mi Calm Calm - 0.01 in Fog Fog
4:44 PM 42.8 °F 39.3 °F 41.0 °F 93% 29.39 in 1.2 mi South 5.8 mph - 0.00 in   Overcast
4:47 PM 46.4 °F 41.9 °F 42.8 °F 87% 29.39 in 3.0 mi SSW 9.2 mph - 0.00 in Rain Light Rain
4:54 PM 51.1 °F - 48.9 °F 92% 29.41 in 8.0 mi SW 8.1 mph 19.6 mph 0.00 in Rain Light Rain
5:54 PM 52.0 °F - 48.9 °F 89% 29.42 in 9.0 mi SSW 10.4 mph - 0.02 in Rain Light Rain
6:54 PM 55.0 °F - 51.1 °F 86% 29.37 in 10.0 mi SSW 17.3 mph 24.2 mph 0.02 in Rain Light Rain
7:54 PM 51.1 °F - 46.9 °F 86% 29.42 in 6.0 mi Calm Calm - 0.00 in Rain Light Rain
8:12 PM 46.4 °F 45.2 °F 44.6 °F 93% 29.40 in 1.5 mi NNW 3.5 mph - 0.00 in Rain Light Rain
8:20 PM 44.6 °F 43.1 °F 44.6 °F 100% 29.39 in 0.5 mi ENE 3.5 mph - 0.01 in Fog , Rain Light Rain
8:54 PM 46.9 °F - 45.0 °F 93% 29.38 in 0.5 mi South 5.8 mph - 0.01 in Fog , Rain Light Rain
8:59 PM 50.0 °F - 48.2 °F 94% 29.37 in 1.2 mi SSW 4.6 mph - 0.01 in Rain Light Rain
9:01 PM 50.0 °F - 48.2 °F 94% 29.37 in 3.0 mi SSW 5.8 mph - 0.01 in Rain Light Rain
9:54 PM 48.9 °F - 48.0 °F 97% 29.35 in 7.0 mi South 4.6 mph - 0.02 in Rain Light Rain
10:54 PM 48.9 °F - 48.0 °F 97% 29.33 in 6.0 mi South 3.5 mph - 0.02 in Rain Light Rain
11:52 PM 48.2 °F - 46.4 °F 93% 29.27 in 1.8 mi Calm Calm - 0.02 in Rain Light Rain
11:54 PM 48.0 °F - 46.0 °F 93% 29.29 in 1.8 mi South 3.5 mph - 0.03 in Rain Light Rain